Location: Clinton (historical)
(37.7963°N, 122.2514°W)
Time: 16:58:24
(UTC+00:00)

Daily predictions for brighter satellites

Satellite Brightness Start Highest point End
(mag) Time Altitude Azimuth Time Altitude Azimuth Time Altitude Azimuth
Cosmos 1605 Rocket 4.4 12:21:14 49° N 12:21:14 49° N 12:25:34 10° N
Cosmos 1697 Rocket 4.1 12:30:48 24° S 12:30:48 24° S 12:33:01 10° S
Cosmos 2360 4.2 12:29:28 70° S 12:29:28 70° S 12:34:32 10° SSE
Cosmos 2278 4.2 12:34:54 45° SSW 12:34:54 45° SSW 12:38:58 10° S
CZ-3B R/B 4.1 12:33:00 15° S 12:33:28 15° SSE 12:36:53 10° SE
ATLAS 2AS CENTAUR R/B 4.2 12:29:17 12° NNW 12:35:25 33° NE 12:41:41 10° ESE
STARLINK-26 4.4 12:36:15 48° ESE 12:36:15 48° ESE 12:39:39 10° ENE
STARLINK-65 4.5 12:37:34 47° SE 12:37:34 47° SE 12:41:28 10° ENE
OAO 3 Rocket 3.4 12:37:52 62° SSE 12:37:52 62° SSE 12:42:20 10° E
STARLINK-61 4.4 12:40:04 45° NE 12:40:04 45° NE 12:42:58 10° NE
PAYLOAD A 4.1 12:36:12 10° N 12:41:04 66° NW 12:41:04 66° NW
STARLINK-69 4.2 12:42:23 54° SE 12:42:25 54° SE 12:46:28 10° ENE
STARLINK-66 4.1 12:43:59 55° SE 12:44:07 55° SE 12:48:11 10° NE
STARLINK-41 4.0 12:45:30 56° SSE 12:45:41 57° SE 12:49:46 10° NE
STARLINK-64 3.9 12:47:10 59° SSE 12:47:22 60° SE 12:51:27 10° NE
STARLINK-70 3.9 12:48:43 60° SSE 12:49:00 62° SE 12:53:06 10° NE
In-Cosmos 22 Rocket 4.2 12:44:01 10° S 12:49:20 74° E 12:54:47 10° NNE
STARLINK-68 3.8 12:50:32 66° SSE 12:50:47 68° SE 12:54:54 10° NE
STARLINK-58 3.8 12:51:48 63° S 12:52:11 67° SE 12:56:18 10° NE
Cosmos 2082 Rocket 3.9 12:55:03 18° NNW 12:55:03 18° NNW 12:57:01 10° N
ATLAS CENTAUR R/B 2.7 12:47:36 10° S 12:52:18 47° ESE 12:56:58 10° NE
Shenzhou-11 Module 4.4 12:54:07 18° ENE 12:54:07 18° ENE 12:55:09 10° ENE
STARLINK-62 3.7 12:53:42 67° S 12:54:04 73° SE 12:58:12 10° NE
STARLINK-63 3.7 12:55:08 62° S 12:55:39 72° SE 12:59:47 10° NE
Cosmos 2112 Rocket 3.9 12:54:55 53° NW 12:55:55 64° WSW 13:01:11 10° S
Cosmos 158 Rocket 3.8 12:53:37 30° NNW 12:56:02 80° ENE 13:00:53 10° SSE
Meteor 2-2 Rocket 4.2 12:54:44 42° NW 12:56:22 58° W 13:01:53 10° S
STARLINK 3.8 12:56:20 52° SSW 12:57:08 67° SE 13:01:15 10° NE
Lacrosse 5 3.7 12:58:45 17° N 12:58:45 17° N 13:01:02 10° NNE
STARLINK-72 3.7 12:58:11 57° SSW 12:58:54 74° SE 13:03:02 10° NE
Meteor PRIRODA 3.8 12:55:34 10° NNE 12:59:13 72° ESE 13:02:50 10° S
Cosmos 1459 Rocket 4.1 12:54:19 10° S 13:00:27 75° E 13:06:43 10° N
Cosmos 1408 4.2 12:58:22 10° SSE 13:01:46 36° E 13:05:11 10° NNE
STARLINK-59 3.5 13:01:34 59° SW 13:02:18 83° SE 13:06:28 10° NE
Cosmos 1680 Rocket 3.7 13:02:21 46° W 13:02:29 46° WSW 13:07:32 10° S
STARLINK-57 3.5 13:03:11 56° SW 13:04:01 86° SE 13:08:10 10° NE
STARLINK-28 3.5 13:06:22 53° SW 13:07:17 88° NW 13:11:27 10° NE
Cosmos 990 Rocket 4.3 13:07:41 41° WNW 13:07:41 41° WNW 13:12:26 10° N
H-2A R/B 3.4 13:07:06 10° S 13:07:59 11° SSE 13:09:05 10° SE
Cosmos 2151 2.9 13:03:49 10° S 13:08:07 86° E 13:12:26 10° N
STARLINK-53 3.5 13:07:08 51° SW 13:08:07 87° NW 13:12:17 10° NE
STARLINK-75 3.5 13:08:05 58° WSW 13:08:49 76° NW 13:12:58 10° NE
CZ-2C R/B 2.7 13:05:49 10° N 13:09:49 40° NW 13:09:49 40° NW
STARLINK-54 3.5 13:09:34 49° WSW 13:10:37 82° NW 13:14:46 10° NE
CZ-3B R/B 3.6 13:07:22 10° SW 13:11:31 17° S 13:14:25 10° SE
Cosmos 1766 Rocket 3.4 13:07:41 10° S 13:12:00 87° E 13:16:21 10° N
ASTEX 1 3.5 13:08:30 10° SSW 13:13:17 50° W 13:18:08 10° NNW
Okean 3 Rocket 3.5 13:10:23 10° SSW 13:14:52 65° W 13:19:21 10° N
STARLINK-37 3.5 13:13:50 44° WSW 13:15:03 74° NW 13:19:12 10° NE
STARLINK-55 3.5 13:14:15 42° WSW 13:15:32 77° NW 13:19:41 10° NE
STARLINK-24 3.5 13:15:50 41° WSW 13:17:08 72° NW 13:21:18 10° NE
STARLINK-34 3.5 13:15:59 42° WSW 13:17:16 72° NW 13:21:24 10° NE
SJ 16-02 2.8 13:20:24 21° NNW 13:20:24 21° NNW 13:22:22 10° N
STARLINK-81 3.5 13:17:11 37° WSW 13:18:45 76° NW 13:22:54 10° NE
CZ-4B R/B 4.5 13:15:59 10° N 13:20:12 41° WNW 13:24:21 10° SW
ALOS 3.0 13:15:46 10° NNE 13:20:21 55° E 13:24:55 10° S
MOS 1-B 4.4 13:15:21 10° NNE 13:21:11 84° ESE 13:26:58 10° SSW
COSMO-SKYMED 1 2.8 13:17:34 10° SSE 13:21:52 72° ENE 13:26:12 10° N
STARLINK-77 3.5 13:20:22 34° WSW 13:22:04 71° NW 13:26:13 10° NE
COSMOS 2455 3.0 13:16:27 11° NNW 13:22:21 74° ENE 13:28:20 10° SSE
STARLINK-25 3.5 13:22:03 33° WSW 13:23:49 69° NW 13:27:57 10° NE
STARLINK-71 3.6 13:24:03 34° WSW 13:25:40 60° NW 13:29:46 10° NE
Cosmos 2360 Rocket 3.9 13:21:38 10° N 13:26:42 32° ENE 13:31:43 10° ESE
STARLINK-79 3.6 13:25:10 30° WSW 13:27:02 64° NW 13:31:10 10° NE
SL-16 R/B 2.3 13:22:50 10° NNW 13:28:33 78° ENE 13:34:12 10° SSE
STARLINK-78 3.6 13:26:50 29° WSW 13:28:46 62° NW 13:32:53 10° NE
Cosmos 2100 Rocket 4.0 13:23:09 10° SSW 13:29:14 59° W 13:35:20 10° N
Cosmos 1892 3.0 13:26:02 10° SSW 13:29:36 39° W 13:33:10 10° N
Meteor 2-20 Rocket 4.5 13:24:10 10° NNW 13:30:14 60° W 13:36:14 10° S
Helios 1A Rocket 3.6 13:26:46 10° NNE 13:30:48 57° E 13:34:47 10° S
STARLINK-49 3.7 13:30:01 27° WSW 13:32:04 58° NW 13:36:10 10° NE
Cosmos 1980 Rocket 3.1 13:31:05 24° W 13:32:26 27° WSW 13:37:06 10° SSW
STARLINK-27 3.7 13:31:36 26° WSW 13:33:44 56° NW 13:37:49 10° NE
STARLINK-74 3.7 13:33:13 25° WSW 13:35:26 54° NW 13:39:30 10° NE
SL-4 R/B 3.8 13:33:25 14° NNW 13:36:56 31° NNE 13:41:12 10° E
STARLINK-39 3.8 13:34:51 24° WSW 13:37:06 52° NW 13:41:10 10° NE
Cosmos 2322 Rocket 2.3 13:31:39 10° NNW 13:37:21 79° ENE 13:43:01 10° SSE
OAO 2 Rocket 3.8 13:35:21 22° W 13:38:31 53° SSW 13:43:25 10° ESE
STARLINK 3.8 13:36:24 23° WSW 13:38:43 51° NW 13:42:46 10° NE
STARLINK-42 3.9 13:37:15 23° W 13:39:29 48° NW 13:43:31 10° NE
Abrixas rocket 2.3 13:38:42 34° WNW 13:39:33 47° NNW 13:42:29 10° NE
Cosmos 1484 Rocket 3.1 13:36:53 10° N 13:40:43 44° WNW 13:44:31 10° SW
Cosmos 1437 3.2 13:37:52 10° S 13:40:51 57° E 13:43:51 10° NNE
STARLINK-21 3.9 13:38:54 22° WSW 13:41:19 48° NW 13:45:22 10° NE
STARLINK-45 4.1 13:41:51 21° W 13:44:09 41° NW 13:48:05 10° NE
Cosmos 1802 Rocket 4.1 13:39:28 10° SSW 13:45:47 58° W 13:52:07 10° N
NOSS 3-4 (A) 4.3 13:39:40 10° NNW 13:46:46 64° NE 13:54:29 10° SE
NOSS 3-4 (C) 4.3 13:39:47 10° NNW 13:46:52 63° NE 13:54:34 10° SE
STARLINK-76 4.0 13:44:27 19° W 13:47:04 43° NW 13:51:03 10° NE
USA 116 3.2 13:44:18 10° SSE 13:47:26 85° ENE 13:50:52 10° NNW
Cosmos 1825 2.0 13:44:26 10° SSW 13:48:10 72° W 13:51:56 10° N
STARLINK 4.1 13:46:03 18° W 13:48:45 42° NW 13:52:42 10° NE
STARLINK-32 4.1 13:47:40 17° W 13:50:27 41° NW 13:54:23 10° NE
STARLINK-40 4.1 13:49:17 17° W 13:52:07 39° NW 13:56:02 10° NE
STARLINK-44 4.2 13:50:54 16° W 13:53:49 38° NW 13:57:43 10° NE
Cosmos 2228 Rocket 4.1 13:50:43 10° N 13:55:12 51° E 13:59:39 10° SSE
STARLINK-36 4.2 13:52:29 15° W 13:55:28 37° NW 13:59:22 10° NE
Okean O Rocket 1.5 13:51:38 10° N 13:55:58 73° WNW 14:00:17 10° SSW
Cosmos 2061 Rocket 4.2 13:54:26 10° SSW 14:00:28 50° W 14:06:30 10° N
STARLINK-35 4.4 13:58:49 13° W 14:02:05 33° NNW 14:05:53 10° NNE
Chandra Rocket (1) 4.4 13:49:59 10° W 14:03:37 37° SSW 14:08:15 10° SE
STARLINK-51 4.4 14:00:29 12° W 14:03:48 33° NNW 14:07:35 10° NNE
STARLINK-30 4.5 14:02:05 12° W 14:05:29 32° NNW 14:09:14 10° NNE
Cosmos 2150 Rocket 4.4 14:01:00 10° SW 14:06:09 42° WNW 14:11:19 10° N
FENGYUN 3A 3.7 14:00:59 10° N 14:06:17 56° WNW 14:11:32 10° SSW
H-2A R/B 4.4 14:02:53 10° NNE 14:06:22 37° E 14:09:48 10° SSE
COSMOS 2487 3.2 14:03:27 10° SW 14:06:31 29° WNW 14:09:35 10° N
STARLINK-33 4.5 14:03:39 11° W 14:07:08 31° NNW 14:10:52 10° NNE
Cosmos 1125 Rocket 3.5 14:03:09 10° SSW 14:08:26 77° WNW 14:13:43 10° NNE
METEOR-M 4.3 14:03:19 10° N 14:08:28 50° WNW 14:13:35 10° SW
USA 267 4.2 14:02:27 10° NE 14:08:48 52° SE 14:15:07 10° SSW
SKYMED 2 4.4 14:06:15 10° SSW 14:10:05 31° W 14:13:57 10° NW
CZ-4B R/B 3.2 14:04:46 10° N 14:10:06 63° WNW 14:15:32 10° SSW
Cosmos 972 Rocket 4.1 14:06:02 10° SSW 14:10:59 86° ESE 14:16:25 10° NNE
Cosmos 2333 Rocket 4.2 14:06:49 10° N 14:11:38 27° ENE 14:16:26 10° ESE
Radarsat Rocket 4.1 14:06:39 10° NNE 14:12:30 85° ESE 14:18:33 10° SSW
Cosmos 1151 Rocket 3.5 14:08:30 10° NNW 14:12:34 39° W 14:16:35 10° SSW
Cosmos 1328 Rocket 4.2 14:11:35 10° NNW 14:15:26 32° W 14:19:16 10° SSW
Cosmos 2233 Rocket 4.0 14:10:37 10° S 14:16:52 79° W 14:23:13 10° N
Cosmos 1515 Rocket 3.7 14:13:00 10° NNW 14:17:14 53° W 14:21:26 10° S
Cosmos 1805 Rocket 4.5 14:13:26 10° S 14:17:39 53° E 14:21:53 10° NNE
Cosmos 1743 Rocket 3.7 14:13:39 10° SSW 14:17:52 52° W 14:22:06 10° N
Cosmos 2219 Rocket 4.1 14:13:05 10° N 14:17:55 28° ENE 14:22:44 10° ESE
NOAA 6 4.2 14:14:25 10° N 14:19:22 49° WNW 14:24:16 10° SW
OAO 3 Rocket 3.8 14:16:14 10° W 14:20:53 48° SSW 14:25:27 10° ESE
ATLAS 2AS CENTAUR R/B 3.0 14:19:28 10° NW 14:26:46 57° WSW 14:33:24 10° SSE
Meteor 1-26 Rocket 4.2 14:21:50 10° N 14:27:32 83° W 14:33:04 10° S
